CW3276 Weather Reports


time (UTC)temp
C
wind
direction
speed
KPH
gust
KPH
rain 1hr
cm
rain 24hr
cm
rain mn
cm
humidity
%
barometer
mb
20260506151249 12 45 6.4 17.7 0.00 0.00 0.00 71 1006.0
20260506150219 12 23 6.4 16.1 0.00 0.00 0.00 72 1006.0
20260506145150 12 23 4.8 19.3 0.00 0.00 0.00 69 1006.0
20260506144136 12 0 6.4 16.1 0.00 0.00 0.00 67 1006.1
20260506143116 12 23 4.8 14.5 0.00 0.00 0.00 66 1006.1
20260506142101 12 45 6.4 11.3 0.00 0.00 0.00 65 1006.1
20260506141044 12 23 4.8 16.1 0.00 0.00 0.00 65 1006.0
20260506140043 12 45 8.0 19.3 0.00 0.00 0.00 66 1006.0
20260506135007 12 23 8.0 22.5 0.00 0.00 0.00 66 1006.0
20260506133941 13 45 8.0 19.3 0.00 0.00 0.00 67 1006.0
20260506132933 13 45 4.8 17.7 0.00 0.00 0.00 66 1006.0
20260506131929 13 23 6.4 16.1 0.00 0.00 0.00 66 1005.9
20260506130923 13 23 4.8 11.3 0.00 0.00 0.00 65 1005.9
20260506125855 13 0 8.0 19.3 0.00 0.00 0.00 63 1005.9
20260506122753 13 0 6.4 14.5 0.00 0.00 0.00 62 1005.7
20260506121732 13 45 9.7 24.1 0.00 0.00 0.00 61 1005.5
20260506120740 13 45 8.0 27.4 0.00 0.00 0.00 61 1005.5
20260506115636 14 45 8.0 27.4 0.00 0.00 0.00 64 1005.5
20260506114608 13 45 6.4 17.7 0.00 0.00 0.00 65 1005.5
20260506113551 13 45 6.4 17.7 0.00 0.00 0.00 63 1005.5
20260506111540 13 45 11.3 24.1 0.00 0.00 0.00 61 1005.5
20260506110454 13 45 9.7 25.7 0.00 0.00 0.00 63 1005.5
20260506105449 13 23 6.4 19.3 0.00 0.00 0.00 66 1005.5
20260506104414 12 45 8.0 22.5 0.00 0.00 0.00 66 1005.6
20260506103341 12 45 4.8 16.1 0.00 0.00 0.00 70 1005.6
20260506101243 12 45 4.8 12.9 0.00 0.00 0.00 72 1005.5
20260506100239 11 45 4.8 17.7 0.00 0.00 0.00 70 1005.6
20260506095104 11 45 3.2 11.3 0.00 0.00 0.00 70 1005.6
20260506094039 11 45 6.4 17.7 0.00 0.00 0.00 69 1005.6
20260506093013 11 23 6.4 14.5 0.00 0.00 0.00 70 1005.6
20260506091946 11 45 6.4 19.3 0.00 0.00 0.00 70 1005.6
20260506090919 11 45 6.4 17.7 0.00 0.00 0.00 71 1005.6
20260506085845 11 45 4.8 16.1 0.00 0.00 0.00 73 1005.6
20260506084820 11 45 6.4 16.1 0.00 0.00 0.00 74 1005.6
20260506083815 10 45 3.2 16.1 0.00 0.00 0.00 73 1005.6
20260506081716 10 45 3.2 16.1 0.00 0.00 0.00 73 1005.6
20260506080701 10 23 3.2 11.3 0.00 0.00 0.00 74 1005.4
20260506072603 10 45 3.2 9.7 0.00 0.00 0.00 75 1005.3
20260506071537 10 45 3.2 9.7 0.00 0.00 0.00 75 1005.2
20260506070525 10 45 4.8 14.5 0.00 0.00 0.00 75 1005.2
20260506062331 9 0 6.4 16.1 0.00 0.03 0.00 75 1005.1
20260506061331 9 45 6.4 16.1 0.00 0.03 0.00 77 1005.1
20260506060301 9 45 6.4 20.9 0.00 0.03 0.00 77 1005.1
20260506051042 8 45 4.8 17.7 0.00 0.13 0.00 77 1005.2
20260506045011 8 45 3.2 11.3 0.00 0.15 0.00 77 1005.4
20260506043937 8 45 4.8 12.9 0.00 0.18 0.00 77 1005.4
20260506042920 8 45 3.2 12.9 0.00 0.20 0.00 77 1005.4
20260506041914 8 45 4.8 11.3 0.00 0.23 0.00 78 1005.3
20260506040839 8 45 3.2 16.1 0.00 0.25 0.00 78 1005.3
20260506035809 8 45 3.2 14.5 0.00 0.28 0.00 79 1005.3
20260506034804 8 45 4.8 14.5 0.00 0.33 0.00 79 1005.3
20260506033740 8 45 3.2 11.3 0.00 0.33 0.00 79 1005.4
20260506032708 8 45 4.8 11.3 0.00 0.38 0.00 79 1005.4
20260506031651 8 45 4.8 11.3 0.00 0.41 0.00 80 1005.6
20260506030623 8 45 3.2 11.3 0.00 0.46 0.00 81 1005.7
20260506025603 8 45 3.2 9.7 0.00 0.48 0.00 81 1005.8
20260506024532 8 45 3.2 9.7 0.00 0.48 0.00 83 1005.9
20260506023507 8 0 3.2 11.3 0.00 0.48 0.00 83 1006.0
20260506022450 8 45 3.2 12.9 0.00 0.48 0.00 84 1006.0
20260506021425 8 23 3.2 12.9 0.00 0.48 0.00 84 1006.1
20260506020428 8 23 3.2 8.0 0.00 0.48 0.00 84 1006.2
20260506015405 8 23 1.6 4.8 0.00 0.48 0.00 84 1006.3
20260506013312 8 23 1.6 6.4 0.00 0.48 0.00 84 1006.3
20260506012240 8 23 1.6 8.0 0.00 0.48 0.00 84 1006.3
20260506011238 8 23 1.6 6.4 0.00 0.48 0.00 84 1006.5
20260506010213 8 45 1.6 4.8 0.00 0.48 0.00 84 1006.5
20260506005212 8 45 1.6 6.4 0.00 0.48 0.00 83 1006.6
20260506004156 8 45 1.6 6.4 0.00 0.48 0.00 83 1006.7
20260506003153 8 45 0.0 4.8 0.00 0.48 0.00 84 1006.7
20260506002154 8 45 3.2 6.4 0.00 0.48 0.00 84 1006.7
20260506001118 8 45 1.6 8.0 0.00 0.48 0.00 85 1006.7
20260505234004 8 0 3.2 11.3 0.00 0.48 0.00 90 1006.9
20260505232946 8 45 3.2 9.7 0.00 0.48 0.00 91 1006.9
20260505231928 8 45 3.2 11.3 0.00 0.48 0.00 91 1006.8
20260505230913 8 45 1.6 8.0 0.00 0.48 0.00 90 1006.9
20260505225842 8 23 1.6 6.4 0.00 0.48 0.00 90 1006.9
20260505224838 8 45 1.6 6.4 0.00 0.48 0.00 89 1007.2
20260505223814 8 45 0.0 4.8 0.00 0.48 0.00 88 1007.2
20260505222757 8 45 0.0 3.2 0.00 0.48 0.00 88 1007.2
20260505220703 8 45 0.0 6.4 0.00 0.48 0.00 87 1007.3
20260505214610 9 45 0.0 3.2 0.00 0.48 0.48 86 1007.4
20260505213536 9 45 0.0 4.8 0.00 0.48 0.48 85 1007.5
20260505212510 9 45 0.0 4.8 0.00 0.48 0.48 85 1007.5
20260505211447 9 45 0.0 3.2 0.00 0.48 0.48 84 1007.4
20260505210456 9 45 0.0 3.2 0.00 0.48 0.48 84 1007.4
20260505205411 10 45 0.0 3.2 0.00 0.48 0.48 84 1007.4
20260505204344 10 45 1.6 6.4 0.00 0.48 0.48 83 1007.4
20260505203321 10 45 1.6 4.8 0.00 0.48 0.48 82 1007.4
20260505202255 10 45 1.6 8.0 0.00 0.48 0.48 82 1007.4
20260505201231 10 45 3.2 8.0 0.00 0.48 0.48 81 1007.1
20260505200206 10 23 3.2 9.7 0.00 0.48 0.48 81 1007.1
20260505195205 10 45 3.2 11.3 0.00 0.48 0.48 80 1007.1
20260505194149 10 45 1.6 8.0 0.00 0.48 0.48 80 1007.1
20260505193124 10 45 1.6 6.4 0.00 0.48 0.48 80 1007.1
20260505192058 11 45 1.6 6.4 0.00 0.48 0.48 79 1007.0
20260505191040 11 45 3.2 8.0 0.00 0.48 0.48 79 1007.0
20260505190011 11 45 1.6 6.4 0.00 0.48 0.48 79 1007.0
20260505184936 11 45 1.6 8.0 0.00 0.48 0.48 79 1007.0
20260505183902 12 45 3.2 8.0 0.00 0.48 0.48 79 1007.1
20260505182844 12 45 3.2 11.3 0.00 0.48 0.48 78 1007.1
20260505181818 12 23 3.2 9.7 0.00 0.48 0.48 78 1007.0
20260505180818 12 45 1.6 8.0 0.00 0.48 0.48 78 1007.1
20260505175816 12 45 3.2 8.0 0.00 0.48 0.48 77 1007.1
20260505172654 12 0 4.8 14.5 0.00 0.48 0.48 77 1007.0
20260505171647 12 45 4.8 14.5 0.00 0.48 0.48 76 1007.1
20260505170625 12 45 3.2 12.9 0.00 0.48 0.48 78 1007.0
20260505165543 12 45 3.2 11.3 0.00 0.48 0.48 79 1007.0
20260505164521 12 45 3.2 9.7 0.00 0.48 0.48 79 1007.2
20260505163502 12 23 3.2 11.3 0.00 0.48 0.48 79 1007.4
20260505161406 13 45 4.8 16.1 0.00 0.48 0.48 79 1007.5
20260505153306 13 23 3.2 11.3 0.00 0.48 0.48 80 1007.6